Weather in Solnechny

Russia / Mari El Republic     56°32′38″N   48°24′16″E
temp.,
°C
wind,
m/s
gust,
m/s
humid.,
%
clouds,
%
prec.,
mm/h
press.,
hPa
HPBL,
m
4 march, thu
thu400:00−7sw389696 0.4 1002276
03:00−6sw4109698 0.9 1000446
06:00−3wsw4995100 0.3 997659
09:00−2sw51195100 0.6 995758
12:00−1sw71396100 1.6 9911069
15:000wsw81494100 2.8 9891261
18:00−3w6148290 0.7 9901017
21:00−5wnw5138995 0.8 994811
5 march, fri
fri500:00−9wnw4109597 0.0 997345
03:00−13wnw369792 0.1 1000107
06:00−16nw239738 0.0 100122
09:00−11wnw239219 0.0 1003162
12:00−7w35890 0.0 1004512
15:00−5w468845 0.1 1005795
18:00−7wsw3895100 0.1 1006397
21:00−9wsw3897100 0.3 1008252
6 march, sat
sat600:00−11w379698 0.1 1009205
03:00−15nw129894 0.2 101120
06:00−15nnw2597100 0.2 1012148
09:00−15nw249280 0.2 1014244
12:00−12wnw348834 0.0 1014551
15:00−12wnw358767 0.1 1014736
18:00−16wnw129695 0.1 101420
21:00−17w229894 0.1 101420
7 march, sun
sun700:00−19w2210083 0.0 101320
03:00−20sw1210088 0.1 101220
06:00−20sw23100100 0.1 101221
09:00−16s3597100 0.1 1010209
12:00−10s469196 0.0 1008519
15:00−9s599094 0.0 1005596
18:00−10s61394100 0.2 1002711
21:00−8s61294100 1.4 999872
8 march, mon
mon800:00−7s61294100 1.6 995858
03:00−6wsw61194100 3.4 993746
06:00−11wsw51288100 0.2 994605
09:00−11sw5109398 0.2 996492
12:00−7sw5991100 0.3 998643
15:00−6sw4886100 0.4 998684
18:00−9sse2290100 0.0 99621
21:00−13n119091 0.0 99621